Inverness, FL

7:50 PM EDT on July 20, 2017 (GMT -0400)
Inverness

Weather History for KINF - January, 2014

Change the Weather History Date:

Thursday, January 2, 2014

  Actual Average (KBKV) Record (KBKV)
Temperature  
Mean Temperature 62 °F -  
Max Temperature 68 °F 67 °F 82 °F (2017)
Min Temperature 55 °F 42 °F 30 °F (2008)
Degree Days  
Heating Degree Days 4    
Growing Degree Days 12 (Base 50)    
Moisture  
Dew Point 62 °F    
Average Humidity 98    
Maximum Humidity 100    
Minimum Humidity 88    
Precipitation  
Precipitation 0.38 in - - ()
Sea Level Pressure  
Sea Level Pressure 29.94 in    
Wind  
Wind Speed 2 mph (WSW)    
Max Wind Speed 13 mph    
Max Gust Speed 18 mph    
Visibility 5 miles    
Events Fog , Rain , Thunderstorm    
Averages and records for this station are not official NWS values.
T = Trace of Precipitation, MM = Missing Value Source: NWS Daily Summary

Daily Weather History Graph

Daily Weather History Graph

Search for Another Location

Airport or City:

Trip Planner

Search our weather history database for the weather conditions in past years. The results will help you decide how hot, cold, wet, or windy it might be!

Date:

Astronomy

Jan. 02, 2014 Rise Set
Actual Time 7:22 AM EST 5:44 PM EST
Civil Twilight 6:56 AM EST 6:10 PM EST
Nautical Twilight 6:27 AM EST 6:39 PM EST
Astronomical Twilight 5:58 AM EST 7:08 PM EST
Moon 8:11 AM EST (1/2) 7:29 PM EST (1/2)
Length of Visible Light 11h 13m
Length of Day
10h 21m
New Moon, 2% of the Moon is Illuminated
Jan 2
New Moon
Jan 7
First Quarter
Jan 15
Full
Jan 24
Last Quarter
Jan 30
New

Hourly Weather History & Observations

Time (EST) Temp. Dew Point Humidity Pressure Visibility Wind Dir Wind Speed Gust Speed Precip Events Conditions
12:15 AM 60.8 °F 59.0 °F 94% 30.08 in 10.0 mi ENE 3.5 mph - N/A   Overcast
12:35 AM 60.8 °F 60.8 °F 100% 30.07 in 10.0 mi Calm Calm - N/A   Overcast
12:55 AM 60.8 °F 60.8 °F 100% 30.06 in 5.0 mi Calm Calm - N/A   Overcast
1:15 AM 60.8 °F 60.8 °F 100% 30.06 in 2.5 mi Calm Calm - N/A   Overcast
1:35 AM 60.8 °F 60.8 °F 100% 30.05 in 1.2 mi Calm Calm - N/A   Overcast
1:55 AM 60.8 °F 60.8 °F 100% 30.04 in 1.0 mi Calm Calm - N/A   Overcast
2:15 AM 60.8 °F 60.8 °F 100% 30.03 in 0.8 mi Calm Calm - N/A   Overcast
2:35 AM 60.8 °F 60.8 °F 100% 30.03 in 0.8 mi Calm Calm - N/A   Overcast
2:55 AM 60.8 °F 60.8 °F 100% 30.02 in 0.5 mi Calm Calm - N/A Fog Fog
3:15 AM 60.8 °F 60.8 °F 100% 30.01 in 0.2 mi Calm Calm - N/A Fog Fog
3:35 AM 60.8 °F 60.8 °F 100% 30.00 in 0.2 mi Calm Calm - N/A Fog Fog
3:55 AM 60.8 °F 60.8 °F 100% 30.00 in 0.2 mi Calm Calm - N/A Fog Fog
4:15 AM 60.8 °F 60.8 °F 100% 29.99 in 0.2 mi Calm Calm - N/A Fog Fog
4:35 AM 60.8 °F 60.8 °F 100% 29.99 in 0.2 mi Calm Calm - N/A Fog Fog
4:55 AM 60.8 °F 60.8 °F 100% 29.98 in 0.2 mi Calm Calm - N/A Fog Fog
5:15 AM 60.8 °F 60.8 °F 100% 29.97 in 0.5 mi Calm Calm - N/A Fog Fog
5:35 AM 60.8 °F 60.8 °F 100% 29.97 in 0.8 mi Calm Calm - N/A   Overcast
5:55 AM 60.8 °F 60.8 °F 100% 29.97 in 0.8 mi Calm Calm - N/A   Overcast
6:15 AM 60.8 °F 60.8 °F 100% 29.96 in 0.8 mi Calm Calm - N/A   Overcast
6:35 AM 60.8 °F 60.8 °F 100% 29.97 in 0.8 mi Calm Calm - N/A   Overcast
6:55 AM 62.6 °F 60.8 °F 94% 29.96 in 1.8 mi South 8.1 mph - N/A   Overcast
7:15 AM 62.6 °F 62.6 °F 100% 29.97 in 1.2 mi South 4.6 mph - N/A   Overcast
7:35 AM 62.6 °F 62.6 °F 100% 29.97 in 0.2 mi South 4.6 mph - N/A Fog Fog
7:55 AM 64.4 °F 64.4 °F 100% 29.96 in 0.5 mi South 5.8 mph - N/A Fog Fog
8:15 AM 64.4 °F 64.4 °F 100% 29.97 in 1.0 mi South 4.6 mph - N/A   Overcast
8:35 AM 66.2 °F 66.2 °F 100% 29.97 in 5.0 mi South 4.6 mph - N/A   Overcast
8:55 AM 68.0 °F 68.0 °F 100% 29.97 in 7.0 mi SW 5.8 mph - N/A   Overcast
9:15 AM 68.0 °F 68.0 °F 100% 29.97 in 5.0 mi SSW 3.5 mph - N/A   Overcast
9:35 AM 68.0 °F 68.0 °F 100% 29.97 in 5.0 mi South 3.5 mph - N/A   Overcast
9:55 AM 68.0 °F 68.0 °F 100% 29.98 in 5.0 mi Calm Calm - N/A   Overcast
10:15 AM 68.0 °F 68.0 °F 100% 29.97 in 3.0 mi Calm Calm - N/A   Overcast
10:35 AM 64.4 °F 64.4 °F 100% 29.96 in 1.5 mi North 4.6 mph - N/A   Overcast
10:55 AM 64.4 °F 62.6 °F 94% 29.96 in 3.0 mi NNW 4.6 mph - N/A Rain Light Rain
11:15 AM 62.6 °F 62.6 °F 100% 29.96 in 7.0 mi North 6.9 mph - 0.02 in Rain Light Rain
11:35 AM 60.8 °F 60.8 °F 100% 29.94 in 10.0 mi NNW 5.8 mph - 0.04 in Rain Light Rain
11:55 AM 60.8 °F 60.8 °F 100% 29.93 in 10.0 mi North 3.5 mph - 0.04 in   Drizzle
12:15 PM 62.6 °F 62.6 °F 100% 29.92 in 10.0 mi Calm Calm - N/A Rain Rain
12:35 PM 62.6 °F 62.6 °F 100% 29.92 in 10.0 mi WNW 3.5 mph - N/A   Drizzle
12:55 PM 62.6 °F 62.6 °F 100% 29.89 in 0.5 mi Calm Calm - 0.22 in Rain Light Rain
1:15 PM 62.6 °F 62.6 °F 100% 29.88 in 10.0 mi Calm Calm - N/A   Overcast
1:35 PM 64.4 °F 64.4 °F 100% 29.87 in 10.0 mi Calm Calm - N/A Thunderstorm Mostly Cloudy
1:55 PM 64.4 °F 64.4 °F 100% 29.85 in 10.0 mi Calm Calm - N/A   Mostly Cloudy
2:15 PM 64.4 °F 64.4 °F 100% 29.85 in 7.0 mi South 3.5 mph - N/A   Overcast
2:35 PM 66.2 °F 64.4 °F 94% 29.85 in 7.0 mi SSE 5.8 mph - N/A   Overcast
2:55 PM 66.2 °F 64.4 °F 94% 29.86 in 10.0 mi South 3.5 mph - N/A   Overcast
3:15 PM 68.0 °F 64.4 °F 88% 29.86 in 7.0 mi South 5.8 mph - N/A   Overcast
3:35 PM 68.0 °F 64.4 °F 88% 29.86 in 7.0 mi South 6.9 mph - N/A   Overcast
3:55 PM 68.0 °F 64.4 °F 88% 29.85 in 7.0 mi Calm Calm - N/A   Overcast
4:15 PM 68.0 °F 66.2 °F 94% 29.85 in 7.0 mi Calm Calm - N/A   Overcast
4:35 PM 68.0 °F 64.4 °F 88% 29.88 in 2.5 mi Calm Calm - 0.05 in Rain Heavy Rain
4:55 PM 66.2 °F 64.4 °F 94% 29.88 in 7.0 mi Calm Calm - 0.08 in Rain Light Rain
5:15 PM 66.2 °F 64.4 °F 94% 29.88 in 5.0 mi Calm Calm - 0.02 in Rain Light Rain
5:35 PM 64.4 °F 64.4 °F 100% 29.88 in 7.0 mi WNW 3.5 mph - 0.03 in Rain Light Rain
5:55 PM 64.4 °F 64.4 °F 100% 29.87 in 10.0 mi Calm Calm - 0.03 in   Overcast
6:15 PM 64.4 °F 64.4 °F 100% 29.88 in 10.0 mi SW 3.5 mph - N/A   Overcast
6:35 PM 64.4 °F 64.4 °F 100% 29.88 in 10.0 mi SW 3.5 mph - N/A Rain Light Rain
6:55 PM 64.4 °F 64.4 °F 100% 29.85 in 10.0 mi SSW 5.8 mph - N/A   Overcast
7:15 PM 64.4 °F 64.4 °F 100% 29.88 in 7.0 mi Calm Calm - N/A   Overcast
7:35 PM 64.4 °F 64.4 °F 100% 29.87 in 7.0 mi Calm Calm - N/A   Overcast
7:55 PM 64.4 °F 64.4 °F 100% 29.88 in 7.0 mi Calm Calm - N/A   Overcast
8:15 PM 64.4 °F 64.4 °F 100% 29.88 in 7.0 mi WSW 3.5 mph - N/A   Overcast
8:35 PM 64.4 °F 64.4 °F 100% 29.88 in 10.0 mi SW 3.5 mph - N/A   Overcast
8:55 PM 64.4 °F 64.4 °F 100% 29.88 in 10.0 mi Calm Calm - N/A   Overcast
9:15 PM 64.4 °F 64.4 °F 100% 29.89 in 5.0 mi West 6.9 mph - N/A   Overcast
9:35 PM 62.6 °F 62.6 °F 100% 29.92 in 4.0 mi WNW 4.6 mph - N/A Rain Rain
9:55 PM 62.6 °F 60.8 °F 94% 29.94 in 4.0 mi NNW 12.7 mph 18.4 mph 0.01 in Rain Light Rain
10:15 PM 59.0 °F 59.0 °F 100% 29.96 in 7.0 mi NNW 9.2 mph 16.1 mph N/A   Overcast
10:35 PM 57.2 °F 55.4 °F 94% 29.98 in 10.0 mi NNW 8.1 mph - N/A   Mostly Cloudy
10:55 PM 55.4 °F 53.6 °F 94% 29.98 in 10.0 mi NNW 5.8 mph - N/A   Scattered Clouds
11:15 PM 55.4 °F 53.6 °F 94% 29.99 in 10.0 mi NNW 4.6 mph - N/A   Mostly Cloudy
11:35 PM 55.4 °F 53.6 °F 94% 29.99 in 10.0 mi NW 3.5 mph - N/A   Mostly Cloudy
11:55 PM 55.4 °F 51.8 °F 88% 30.00 in 10.0 mi NW 3.5 mph - N/A   Mostly Cloudy